owner,sensor,date,latitude,longitude,vertical_datum,direction_of_sea_water_velocity,sea_water_speed,upward_sea_water_velocity,qcFlag 
TABS,ioos:station:wmo:42048:1,2015-11-01T00:00:00Z,27.9396,-96.8429,2.0,209.2079834,35.49285562,-99999.0,'11111222,11111222,99999999' 
TABS,ioos:station:wmo:42048:1,2015-11-01T00:30:00Z,27.9396,-96.8429,2.0,209.6231909,35.12051395,-99999.0,'11111222,11111222,99999999' 
TABS,ioos:station:wmo:42048:1,2015-11-01T01:00:00Z,27.9396,-96.8429,2.0,214.1807159,34.95848967,-99999.0,'11111222,11111222,99999999' 
TABS,ioos:station:wmo:42048:1,2015-11-01T01:30:00Z,27.9396,-96.8429,2.0,212.7849424,34.42343969,-99999.0,'11111222,11111222,99999999' 
TABS,ioos:station:wmo:42048:1,2015-11-01T02:00:00Z,27.9396,-96.8429,2.0,213.5542019,32.81892899,-99999.0,'11111222,11111222,99999999' 
TABS,ioos:station:wmo:42048:1,2015-11-01T02:30:00Z,27.9396,-96.8429,2.0,218.0960399,33.82574907,-99999.0,'11111222,11111222,99999999' 
TABS,ioos:station:wmo:42048:1,2015-11-01T03:00:00Z,27.9396,-96.8429,2.0,212.7408689,34.83440254,-99999.0,'11111222,11111222,99999999' 
TABS,ioos:station:wmo:42048:1,2015-11-01T03:30:00Z,27.9396,-96.8429,2.0,217.7652532,33.5220957,-99999.0,'11111222,11111222,99999999' 
TABS,ioos:station:wmo:42048:1,2015-11-01T04:00:00Z,27.9396,-96.8429,2.0,218.5217714,33.78204405,-99999.0,'11111222,11111222,99999999' 
TABS,ioos:station:wmo:42048:1,2015-11-01T04:30:00Z,27.9396,-96.8429,2.0,220.0648521,34.19516048,-99999.0,'11111222,11111222,99999999' 
TABS,ioos:station:wmo:42048:1,2015-11-01T05:00:00Z,27.9396,-96.8429,2.0,221.5284651,36.78754817,-99999.0,'11111222,11111222,99999999' 
TABS,ioos:station:wmo:42048:1,2015-11-01T05:30:00Z,27.9396,-96.8429,2.0,230.1700722,33.58279619,-99999.0,'11111222,11111222,99999999' 
TABS,ioos:station:wmo:42048:1,2015-11-01T06:00:00Z,27.9396,-96.8429,2.0,222.5255699,29.64834059,-99999.0,'11111222,11111222,99999999' 
TABS,ioos:station:wmo:42048:1,2015-11-01T06:30:00Z,27.9396,-96.8429,2.0,224.0483942,28.53569169,-99999.0,'11111222,11111222,99999999' 
TABS,ioos:station:wmo:42048:1,2015-11-01T07:00:00Z,27.9396,-96.8429,2.0,218.2123761,29.01796857,-99999.0,'11111222,11111222,99999999' 
TABS,ioos:station:wmo:42048:1,2015-11-01T07:30:00Z,27.9396,-96.8429,2.0,224.7517657,31.04934943,-99999.0,'11111222,11111222,99999999' 
TABS,ioos:station:wmo:42048:1,2015-11-01T08:00:00Z,27.9396,-96.8429,2.0,225.4925379,26.30534546,-99999.0,'11111222,11111222,99999999' 
TABS,ioos:station:wmo:42048:1,2015-11-01T08:30:00Z,27.9396,-96.8429,2.0,232.8899345,27.71224278,-99999.0,'11111222,11111222,99999999' 
TABS,ioos:station:wmo:42048:1,2015-11-01T09:00:00Z,27.9396,-96.8429,2.0,235.9900352,26.85345415,-99999.0,'11111222,11111222,99999999' 
TABS,ioos:station:wmo:42048:1,2015-11-01T09:30:00Z,27.9396,-96.8429,2.0,225.0599004,26.91249895,-99999.0,'11111222,11111222,99999999' 
TABS,ioos:station:wmo:42048:1,2015-11-01T10:00:00Z,27.9396,-96.8429,2.0,232.4340207,23.71774863,-99999.0,'11111222,11111222,99999999' 
TABS,ioos:station:wmo:42048:1,2015-11-01T10:30:00Z,27.9396,-96.8429,2.0,225.7626768,23.89525685,-99999.0,'11111222,11111222,99999999' 
TABS,ioos:station:wmo:42048:1,2015-11-01T11:00:00Z,27.9396,-96.8429,2.0,223.8517028,21.88227593,-99999.0,'11111222,11111222,99999999' 
TABS,ioos:station:wmo:42048:1,2015-11-01T11:30:00Z,27.9396,-96.8429,2.0,222.8178706,21.7310032,-99999.0,'11111222,11111222,99999999' 
TABS,ioos:station:wmo:42048:1,2015-11-01T12:00:00Z,27.9396,-96.8429,2.0,218.9917284,20.47003908,-99999.0,'11111222,11111222,99999999' 
TABS,ioos:station:wmo:42048:1,2015-11-01T12:30:00Z,27.9396,-96.8429,2.0,224.7899647,19.31828667,-99999.0,'11111222,11111222,99999999' 
TABS,ioos:station:wmo:42048:1,2015-11-01T13:00:00Z,27.9396,-96.8429,2.0,224.7272823,22.30947108,-99999.0,'11111222,11111222,99999999' 
TABS,ioos:station:wmo:42048:1,2015-11-01T13:30:00Z,27.9396,-96.8429,2.0,225.7775692,22.39613583,-99999.0,'11111222,11111222,99999999' 
TABS,ioos:station:wmo:42048:1,2015-11-01T14:00:00Z,27.9396,-96.8429,2.0,224.8958503,19.50910813,-99999.0,'11111222,11111222,99999999' 
TABS,ioos:station:wmo:42048:1,2015-11-01T14:30:00Z,27.9396,-96.8429,2.0,222.5569346,22.56306717,-99999.0,'11111222,11111222,99999999' 
TABS,ioos:station:wmo:42048:1,2015-11-01T15:00:00Z,27.9396,-96.8429,2.0,214.1977426,22.52448668,-99999.0,'11111222,11111222,99999999' 
TABS,ioos:station:wmo:42048:1,2015-11-01T15:30:00Z,27.9396,-96.8429,2.0,213.6830041,23.45827146,-99999.0,'11111222,11111222,99999999' 
TABS,ioos:station:wmo:42048:1,2015-11-01T16:00:00Z,27.9396,-96.8429,2.0,213.5054607,23.27811418,-99999.0,'11111222,11111222,99999999' 
TABS,ioos:station:wmo:42048:1,2015-11-01T16:30:00Z,27.9396,-96.8429,2.0,218.0086323,22.13437372,-99999.0,'11111222,11111222,99999999' 
TABS,ioos:station:wmo:42048:1,2015-11-01T17:00:00Z,27.9396,-96.8429,2.0,207.1107238,25.34474502,-99999.0,'11111222,11111222,99999999' 
TABS,ioos:station:wmo:42048:1,2015-11-01T17:30:00Z,27.9396,-96.8429,2.0,212.2351997,23.49080246,-99999.0,'11111222,11111222,99999999' 
TABS,ioos:station:wmo:42048:1,2015-11-01T18:00:00Z,27.9396,-96.8429,2.0,207.437804,29.64475839,-99999.0,'11111222,11111222,99999999' 
TABS,ioos:station:wmo:42048:1,2015-11-01T18:30:00Z,27.9396,-96.8429,2.0,209.4549023,27.22969335,-99999.0,'11111222,11111222,99999999' 
TABS,ioos:station:wmo:42048:1,2015-11-01T19:00:00Z,27.9396,-96.8429,2.0,209.8748877,25.63680557,-99999.0,'11111222,11111222,99999999' 
TABS,ioos:station:wmo:42048:1,2015-11-01T19:30:00Z,27.9396,-96.8429,2.0,208.5837438,27.67286758,-99999.0,'11111222,11111222,99999999' 
TABS,ioos:station:wmo:42048:1,2015-11-01T20:00:00Z,27.9396,-96.8429,2.0,199.3264076,30.27615068,-99999.0,'11111222,11111222,99999999' 
TABS,ioos:station:wmo:42048:1,2015-11-01T20:30:00Z,27.9396,-96.8429,2.0,206.5289296,28.59037076,-99999.0,'11111222,11111222,99999999' 
TABS,ioos:station:wmo:42048:1,2015-11-01T21:00:00Z,27.9396,-96.8429,2.0,198.8164964,29.4224846,-99999.0,'11111222,11111222,99999999' 
TABS,ioos:station:wmo:42048:1,2015-11-01T21:30:00Z,27.9396,-96.8429,2.0,202.7233323,26.76773618,-99999.0,'11111222,11111222,99999999' 
TABS,ioos:station:wmo:42048:1,2015-11-01T22:00:00Z,27.9396,-96.8429,2.0,203.1559028,33.69455297,-99999.0,'11111222,11111222,99999999' 
TABS,ioos:station:wmo:42048:1,2015-11-01T22:30:00Z,27.9396,-96.8429,2.0,202.739894,31.50930021,-99999.0,'11111222,11111222,99999999' 
TABS,ioos:station:wmo:42048:1,2015-11-01T23:00:00Z,27.9396,-96.8429,2.0,208.8432059,35.32202146,-99999.0,'11111222,11111222,99999999' 
TABS,ioos:station:wmo:42048:1,2015-11-01T23:30:00Z,27.9396,-96.8429,2.0,208.9273062,34.17380576,-99999.0,'11111222,11111222,99999999' 
TABS,ioos:station:wmo:42048:1,2015-11-02T00:00:00Z,27.9396,-96.8429,2.0,206.150535,37.73239722,-99999.0,'11111222,11111222,99999999' 
TABS,ioos:station:wmo:42048:1,2015-11-02T00:30:00Z,27.9396,-96.8429,2.0,211.2930259,35.4819292,-99999.0,'11111222,11111222,99999999' 
TABS,ioos:station:wmo:42048:1,2015-11-02T01:00:00Z,27.9396,-96.8429,2.0,208.4366625,35.04894435,-99999.0,'11111222,11111222,99999999' 
TABS,ioos:station:wmo:42048:1,2015-11-02T01:30:00Z,27.9396,-96.8429,2.0,207.5164224,36.08169758,-99999.0,'11111222,11111222,99999999' 
TABS,ioos:station:wmo:42048:1,2015-11-02T02:00:00Z,27.9396,-96.8429,2.0,214.2929128,37.41382766,-99999.0,'11111222,11111222,99999999' 
TABS,ioos:station:wmo:42048:1,2015-11-02T02:30:00Z,27.9396,-96.8429,2.0,212.0605917,35.02128638,-99999.0,'11111222,11111222,99999999' 
TABS,ioos:station:wmo:42048:1,2015-11-02T03:00:00Z,27.9396,-96.8429,2.0,211.2151934,35.52284476,-99999.0,'11111222,11111222,99999999' 
TABS,ioos:station:wmo:42048:1,2015-11-02T03:30:00Z,27.9396,-96.8429,2.0,221.3021609,36.07389777,-99999.0,'11111222,11111222,99999999' 
TABS,ioos:station:wmo:42048:1,2015-11-02T04:00:00Z,27.9396,-96.8429,2.0,223.9446151,37.24962953,-99999.0,'11111222,11111222,99999999' 
TABS,ioos:station:wmo:42048:1,2015-11-02T04:30:00Z,27.9396,-96.8429,2.0,220.9229161,39.18802113,-99999.0,'11111222,11111222,99999999' 
TABS,ioos:station:wmo:42048:1,2015-11-02T05:00:00Z,27.9396,-96.8429,2.0,224.9996843,38.14133978,-99999.0,'11111222,11111222,99999999' 
TABS,ioos:station:wmo:42048:1,2015-11-02T05:30:00Z,27.9396,-96.8429,2.0,222.760769,40.72508441,-99999.0,'11111222,11111222,99999999' 
TABS,ioos:station:wmo:42048:1,2015-11-02T06:00:00Z,27.9396,-96.8429,2.0,224.2562704,32.69937002,-99999.0,'11111222,11111222,99999999' 
TABS,ioos:station:wmo:42048:1,2015-11-02T06:30:00Z,27.9396,-96.8429,2.0,223.3812231,37.05303496,-99999.0,'11111222,11111222,99999999' 
TABS,ioos:station:wmo:42048:1,2015-11-02T07:00:00Z,27.9396,-96.8429,2.0,225.4772182,41.57225156,-99999.0,'11111222,11111222,99999999' 
TABS,ioos:station:wmo:42048:1,2015-11-02T07:30:00Z,27.9396,-96.8429,2.0,219.6453491,42.66205457,-99999.0,'11111222,11111222,99999999' 
TABS,ioos:station:wmo:42048:1,2015-11-02T08:00:00Z,27.9396,-96.8429,2.0,222.7726985,40.21525208,-99999.0,'11111222,11111222,99999999' 
TABS,ioos:station:wmo:42048:1,2015-11-02T08:30:00Z,27.9396,-96.8429,2.0,221.8059852,40.48817729,-99999.0,'11111222,11111222,99999999' 
TABS,ioos:station:wmo:42048:1,2015-11-02T09:00:00Z,27.9396,-96.8429,2.0,221.9879988,38.89509609,-99999.0,'11111222,11111222,99999999' 
TABS,ioos:station:wmo:42048:1,2015-11-02T09:30:00Z,27.9396,-96.8429,2.0,222.2915457,36.06737168,-99999.0,'11111222,11111222,99999999' 
TABS,ioos:station:wmo:42048:1,2015-11-02T10:00:00Z,27.9396,-96.8429,2.0,216.3909699,31.6031027,-99999.0,'11111222,11111222,99999999' 
TABS,ioos:station:wmo:42048:1,2015-11-02T10:30:00Z,27.9396,-96.8429,2.0,215.7904649,30.265368,-99999.0,'11111222,11111222,99999999' 
TABS,ioos:station:wmo:42048:1,2015-11-02T11:00:00Z,27.9396,-96.8429,2.0,212.3429338,30.56133014,-99999.0,'11111222,11111222,99999999' 
TABS,ioos:station:wmo:42048:1,2015-11-02T11:30:00Z,27.9396,-96.8429,2.0,219.5011588,28.70627283,-99999.0,'11111222,11111222,99999999' 
TABS,ioos:station:wmo:42048:1,2015-11-02T12:00:00Z,27.9396,-96.8429,2.0,214.9707097,26.79871639,-99999.0,'11111222,11111222,99999999' 
TABS,ioos:station:wmo:42048:1,2015-11-02T12:30:00Z,27.9396,-96.8429,2.0,206.1717579,26.73058548,-99999.0,'11111222,11111222,99999999' 
TABS,ioos:station:wmo:42048:1,2015-11-02T13:00:00Z,27.9396,-96.8429,2.0,214.5105587,25.36349542,-99999.0,'11111222,11111222,99999999' 
TABS,ioos:station:wmo:42048:1,2015-11-02T13:30:00Z,27.9396,-96.8429,2.0,216.1953698,27.53390637,-99999.0,'11111222,11111222,99999999' 
TABS,ioos:station:wmo:42048:1,2015-11-02T14:00:00Z,27.9396,-96.8429,2.0,215.5082607,27.4437461,-99999.0,'11111222,11111222,99999999' 
TABS,ioos:station:wmo:42048:1,2015-11-02T14:30:00Z,27.9396,-96.8429,2.0,212.9918387,25.72890398,-99999.0,'11111222,11111222,99999999' 
TABS,ioos:station:wmo:42048:1,2015-11-02T15:00:00Z,27.9396,-96.8429,2.0,219.7899249,23.90704708,-99999.0,'11111222,11111222,99999999' 
TABS,ioos:station:wmo:42048:1,2015-11-02T15:30:00Z,27.9396,-96.8429,2.0,216.793763,24.17602118,-99999.0,'11111222,11111222,99999999' 
TABS,ioos:station:wmo:42048:1,2015-11-02T16:00:00Z,27.9396,-96.8429,2.0,212.0998566,21.79146622,-99999.0,'11111222,11111222,99999999' 
TABS,ioos:station:wmo:42048:1,2015-11-02T16:30:00Z,27.9396,-96.8429,2.0,206.1126239,19.83454058,-99999.0,'11111222,11111222,99999999' 
TABS,ioos:station:wmo:42048:1,2015-11-02T17:00:00Z,27.9396,-96.8429,2.0,209.9127693,22.82000876,-99999.0,'11111222,11111222,99999999' 
TABS,ioos:station:wmo:42048:1,2015-11-02T17:30:00Z,27.9396,-96.8429,2.0,202.4742911,22.44468757,-99999.0,'11111222,11111222,99999999' 
TABS,ioos:station:wmo:42048:1,2015-11-02T18:00:00Z,27.9396,-96.8429,2.0,200.0326572,20.63872574,-99999.0,'11111222,11111222,99999999' 
TABS,ioos:station:wmo:42048:1,2015-11-02T18:30:00Z,27.9396,-96.8429,2.0,206.5315059,23.10305824,-99999.0,'11111222,11111222,99999999' 
TABS,ioos:station:wmo:42048:1,2015-11-02T19:00:00Z,27.9396,-96.8429,2.0,214.5633418,28.37898694,-99999.0,'11111222,11111222,99999999' 
TABS,ioos:station:wmo:42048:1,2015-11-02T19:30:00Z,27.9396,-96.8429,2.0,215.9330566,29.12189039,-99999.0,'11111222,11111222,99999999' 
TABS,ioos:station:wmo:42048:1,2015-11-02T20:00:00Z,27.9396,-96.8429,2.0,215.904659,26.83980626,-99999.0,'11111222,11111222,99999999' 
TABS,ioos:station:wmo:42048:1,2015-11-02T20:30:00Z,27.9396,-96.8429,2.0,207.8945988,24.85835473,-99999.0,'11111222,11111222,99999999' 
TABS,ioos:station:wmo:42048:1,2015-11-02T21:00:00Z,27.9396,-96.8429,2.0,208.0007161,24.98472533,-99999.0,'11111222,11111222,99999999' 
TABS,ioos:station:wmo:42048:1,2015-11-02T21:30:00Z,27.9396,-96.8429,2.0,209.0402435,23.71103119,-99999.0,'11111222,11111222,99999999' 
TABS,ioos:station:wmo:42048:1,2015-11-02T22:00:00Z,27.9396,-96.8429,2.0,210.7851313,24.79367056,-99999.0,'11111222,11111222,99999999' 
TABS,ioos:station:wmo:42048:1,2015-11-02T22:30:00Z,27.9396,-96.8429,2.0,225.1145051,24.69928946,-99999.0,'11111222,11111222,99999999' 
TABS,ioos:station:wmo:42048:1,2015-11-02T23:00:00Z,27.9396,-96.8429,2.0,228.2892947,24.76833664,-99999.0,'11111222,11111222,99999999' 
TABS,ioos:station:wmo:42048:1,2015-11-02T23:30:00Z,27.9396,-96.8429,2.0,232.1289655,23.47358089,-99999.0,'11111222,11111222,99999999' 
TABS,ioos:station:wmo:42048:1,2015-11-03T00:00:00Z,27.9396,-96.8429,2.0,228.9938085,23.34880725,-99999.0,'11111222,11111222,99999999' 
TABS,ioos:station:wmo:42048:1,2015-11-03T00:30:00Z,27.9396,-96.8429,2.0,230.3607017,19.37462258,-99999.0,'11111222,11111222,99999999' 
TABS,ioos:station:wmo:42048:1,2015-11-03T01:00:00Z,27.9396,-96.8429,2.0,221.6381636,19.29478686,-99999.0,'11111222,11111222,99999999' 
TABS,ioos:station:wmo:42048:1,2015-11-03T01:30:00Z,27.9396,-96.8429,2.0,224.1390349,17.41800505,-99999.0,'11111222,11111222,99999999' 
TABS,ioos:station:wmo:42048:1,2015-11-03T02:00:00Z,27.9396,-96.8429,2.0,220.2589412,16.17028447,-99999.0,'11111222,11111222,99999999' 
TABS,ioos:station:wmo:42048:1,2015-11-03T02:30:00Z,27.9396,-96.8429,2.0,223.7360147,17.31418494,-99999.0,'11111222,11111222,99999999' 
TABS,ioos:station:wmo:42048:1,2015-11-03T03:00:00Z,27.9396,-96.8429,2.0,229.8608972,18.27373251,-99999.0,'11111222,11111222,99999999' 
TABS,ioos:station:wmo:42048:1,2015-11-03T03:30:00Z,27.9396,-96.8429,2.0,227.4428714,19.73915145,-99999.0,'11111222,11111222,99999999' 
TABS,ioos:station:wmo:42048:1,2015-11-03T04:00:00Z,27.9396,-96.8429,2.0,220.904138,17.42518293,-99999.0,'11111222,11111222,99999999' 
TABS,ioos:station:wmo:42048:1,2015-11-03T04:30:00Z,27.9396,-96.8429,2.0,218.6476926,15.14729349,-99999.0,'11111222,11111222,99999999' 
TABS,ioos:station:wmo:42048:1,2015-11-03T05:00:00Z,27.9396,-96.8429,2.0,224.7080385,15.2807755,-99999.0,'11111222,11111222,99999999' 
TABS,ioos:station:wmo:42048:1,2015-11-03T05:30:00Z,27.9396,-96.8429,2.0,222.0703245,14.8049485,-99999.0,'11111222,11111222,99999999' 
TABS,ioos:station:wmo:42048:1,2015-11-03T06:00:00Z,27.9396,-96.8429,2.0,217.2345365,13.81628025,-99999.0,'11111222,11111222,99999999' 
TABS,ioos:station:wmo:42048:1,2015-11-03T06:30:00Z,27.9396,-96.8429,2.0,206.5647786,12.65614475,-99999.0,'11111222,11111222,99999999' 
TABS,ioos:station:wmo:42048:1,2015-11-03T07:00:00Z,27.9396,-96.8429,2.0,222.2077883,12.33951782,-99999.0,'11111222,11111222,99999999' 
TABS,ioos:station:wmo:42048:1,2015-11-03T07:30:00Z,27.9396,-96.8429,2.0,215.3621687,12.92447291,-99999.0,'11111222,11111222,99999999' 
TABS,ioos:station:wmo:42048:1,2015-11-03T08:00:00Z,27.9396,-96.8429,2.0,228.1839205,10.1839187,-99999.0,'11111222,11111222,99999999' 
TABS,ioos:station:wmo:42048:1,2015-11-03T08:30:00Z,27.9396,-96.8429,2.0,211.6213763,10.60445661,-99999.0,'11111222,11111222,99999999' 
TABS,ioos:station:wmo:42048:1,2015-11-03T09:00:00Z,27.9396,-96.8429,2.0,220.450417,11.1437561,-99999.0,'11111222,11111222,99999999' 
TABS,ioos:station:wmo:42048:1,2015-11-03T09:30:00Z,27.9396,-96.8429,2.0,214.4870817,8.371236468,-99999.0,'11133222,11111222,99999999' 
TABS,ioos:station:wmo:42048:1,2015-11-03T10:00:00Z,27.9396,-96.8429,2.0,221.4661893,8.260568988,-99999.0,'11133222,11111222,99999999' 
TABS,ioos:station:wmo:42048:1,2015-11-03T10:30:00Z,27.9396,-96.8429,2.0,211.1785534,10.50779235,-99999.0,'11111222,11111222,99999999' 
TABS,ioos:station:wmo:42048:1,2015-11-03T11:00:00Z,27.9396,-96.8429,2.0,233.2607455,7.874020574,-99999.0,'11133222,11111222,99999999' 
TABS,ioos:station:wmo:42048:1,2015-11-03T11:30:00Z,27.9396,-96.8429,2.0,223.4366276,8.813830041,-99999.0,'11133222,11111222,99999999' 
TABS,ioos:station:wmo:42048:1,2015-11-03T12:00:00Z,27.9396,-96.8429,2.0,204.7986463,8.416085789,-99999.0,'11133222,11111222,99999999' 
TABS,ioos:station:wmo:42048:1,2015-11-03T12:30:00Z,27.9396,-96.8429,2.0,242.3155553,8.243718821,-99999.0,'11133222,11111222,99999999' 
TABS,ioos:station:wmo:42048:1,2015-11-03T13:00:00Z,27.9396,-96.8429,2.0,233.2160779,7.966009038,-99999.0,'11133222,11111222,99999999' 
TABS,ioos:station:wmo:42048:1,2015-11-03T13:30:00Z,27.9396,-96.8429,2.0,210.9634737,6.997142274,-99999.0,'11133222,11111222,99999999' 
TABS,ioos:station:wmo:42048:1,2015-11-03T14:00:00Z,27.9396,-96.8429,2.0,210.2936408,6.601431663,-99999.0,'11133222,11111222,99999999' 
TABS,ioos:station:wmo:42048:1,2015-11-03T14:30:00Z,27.9396,-96.8429,2.0,225.8791537,6.449573629,-99999.0,'11133222,11111222,99999999' 
TABS,ioos:station:wmo:42048:1,2015-11-03T15:00:00Z,27.9396,-96.8429,2.0,203.2092664,6.876518014,-99999.0,'11133222,11111222,99999999' 
TABS,ioos:station:wmo:42048:1,2015-11-03T15:30:00Z,27.9396,-96.8429,2.0,222.1118474,4.771959765,-99999.0,'11133222,11111222,99999999' 
TABS,ioos:station:wmo:42048:1,2015-11-03T16:00:00Z,27.9396,-96.8429,2.0,234.0001101,6.056698771,-99999.0,'11133222,11111222,99999999' 
TABS,ioos:station:wmo:42048:1,2015-11-03T16:30:00Z,27.9396,-96.8429,2.0,216.5949685,6.676076692,-99999.0,'11133222,11111222,99999999' 
TABS,ioos:station:wmo:42048:1,2015-11-03T17:00:00Z,27.9396,-96.8429,2.0,242.0991394,9.210629729,-99999.0,'11133222,11111222,99999999' 
TABS,ioos:station:wmo:42048:1,2015-11-03T17:30:00Z,27.9396,-96.8429,2.0,235.3768228,8.518550346,-99999.0,'11133222,11111222,99999999' 
TABS,ioos:station:wmo:42048:1,2015-11-03T18:00:00Z,27.9396,-96.8429,2.0,235.1488124,6.982334853,-99999.0,'11133222,11111222,99999999' 
TABS,ioos:station:wmo:42048:1,2015-11-03T18:30:00Z,27.9396,-96.8429,2.0,251.3772803,7.734972527,-99999.0,'11133222,11111222,99999999' 
TABS,ioos:station:wmo:42048:1,2015-11-03T19:00:00Z,27.9396,-96.8429,2.0,244.8499803,6.517890763,-99999.0,'11133222,11111222,99999999' 
TABS,ioos:station:wmo:42048:1,2015-11-03T19:30:00Z,27.9396,-96.8429,2.0,271.802049,7.633773641,-99999.0,'11133222,11111222,99999999' 
TABS,ioos:station:wmo:42048:1,2015-11-03T20:00:00Z,27.9396,-96.8429,2.0,257.3407702,9.080732349,-99999.0,'11133222,11111222,99999999' 
TABS,ioos:station:wmo:42048:1,2015-11-03T20:30:00Z,27.9396,-96.8429,2.0,260.2517876,9.56813984,-99999.0,'11133222,11111222,99999999' 
TABS,ioos:station:wmo:42048:1,2015-11-03T21:00:00Z,27.9396,-96.8429,2.0,263.293099,10.01855279,-99999.0,'11111222,11111222,99999999' 
TABS,ioos:station:wmo:42048:1,2015-11-03T21:30:00Z,27.9396,-96.8429,2.0,262.033264,10.39026949,-99999.0,'11111222,11111222,99999999' 
TABS,ioos:station:wmo:42048:1,2015-11-03T22:00:00Z,27.9396,-96.8429,2.0,267.3484242,11.24203273,-99999.0,'11111222,11111222,99999999' 
TABS,ioos:station:wmo:42048:1,2015-11-03T22:30:00Z,27.9396,-96.8429,2.0,249.5886186,11.09670672,-99999.0,'11111222,11111222,99999999' 
TABS,ioos:station:wmo:42048:1,2015-11-03T23:00:00Z,27.9396,-96.8429,2.0,246.9596415,10.9102933,-99999.0,'11111222,11111222,99999999' 
TABS,ioos:station:wmo:42048:1,2015-11-03T23:30:00Z,27.9396,-96.8429,2.0,253.3896976,9.830183111,-99999.0,'11133222,11111222,99999999' 
TABS,ioos:station:wmo:42048:1,2015-11-04T00:00:00Z,27.9396,-96.8429,2.0,253.6472338,12.18281577,-99999.0,'11111222,11111222,99999999' 
TABS,ioos:station:wmo:42048:1,2015-11-04T00:30:00Z,27.9396,-96.8429,2.0,242.4968651,11.47703795,-99999.0,'11111222,11111222,99999999' 
TABS,ioos:station:wmo:42048:1,2015-11-04T01:00:00Z,27.9396,-96.8429,2.0,254.6089422,11.49212339,-99999.0,'11111222,11111222,99999999' 
TABS,ioos:station:wmo:42048:1,2015-11-04T01:30:00Z,27.9396,-96.8429,2.0,247.5119044,11.00695235,-99999.0,'11111222,11111222,99999999' 
TABS,ioos:station:wmo:42048:1,2015-11-04T02:00:00Z,27.9396,-96.8429,2.0,232.5314015,11.49062661,-99999.0,'11111222,11111222,99999999' 
TABS,ioos:station:wmo:42048:1,2015-11-04T02:30:00Z,27.9396,-96.8429,2.0,229.619597,12.64171666,-99999.0,'11111222,11111222,99999999' 
TABS,ioos:station:wmo:42048:1,2015-11-04T03:00:00Z,27.9396,-96.8429,2.0,229.1830732,12.98880287,-99999.0,'11111222,11111222,99999999' 
TABS,ioos:station:wmo:42048:1,2015-11-04T03:30:00Z,27.9396,-96.8429,2.0,225.3868112,12.5585031,-99999.0,'11111222,11111222,99999999' 
TABS,ioos:station:wmo:42048:1,2015-11-04T04:00:00Z,27.9396,-96.8429,2.0,237.494772,14.34761653,-99999.0,'11111222,11111222,99999999' 
TABS,ioos:station:wmo:42048:1,2015-11-04T04:30:00Z,27.9396,-96.8429,2.0,242.2553414,14.99377538,-99999.0,'11111222,11111222,99999999' 
TABS,ioos:station:wmo:42048:1,2015-11-04T05:00:00Z,27.9396,-96.8429,2.0,239.1484599,14.83980121,-99999.0,'11111222,11111222,99999999' 
TABS,ioos:station:wmo:42048:1,2015-11-04T05:30:00Z,27.9396,-96.8429,2.0,233.4957716,15.02830662,-99999.0,'11111222,11111222,99999999' 
TABS,ioos:station:wmo:42048:1,2015-11-04T06:00:00Z,27.9396,-96.8429,2.0,235.062221,13.75982558,-99999.0,'11111222,11111222,99999999' 
TABS,ioos:station:wmo:42048:1,2015-11-04T06:30:00Z,27.9396,-96.8429,2.0,226.6301514,15.15943601,-99999.0,'11111222,11111222,99999999' 
TABS,ioos:station:wmo:42048:1,2015-11-04T07:00:00Z,27.9396,-96.8429,2.0,232.2900705,16.10372938,-99999.0,'11111222,11111222,99999999' 
TABS,ioos:station:wmo:42048:1,2015-11-04T07:30:00Z,27.9396,-96.8429,2.0,234.7915744,17.37930954,-99999.0,'11111222,11111222,99999999' 
TABS,ioos:station:wmo:42048:1,2015-11-04T08:00:00Z,27.9396,-96.8429,2.0,224.3628302,17.17668478,-99999.0,'11111222,11111222,99999999' 
TABS,ioos:station:wmo:42048:1,2015-11-04T08:30:00Z,27.9396,-96.8429,2.0,228.8207086,15.49179137,-99999.0,'11111222,11111222,99999999' 
TABS,ioos:station:wmo:42048:1,2015-11-04T09:00:00Z,27.9396,-96.8429,2.0,224.9254351,16.36953573,-99999.0,'11111222,11111222,99999999' 
TABS,ioos:station:wmo:42048:1,2015-11-04T09:30:00Z,27.9396,-96.8429,2.0,227.8168382,16.54508084,-99999.0,'11111222,11111222,99999999' 
TABS,ioos:station:wmo:42048:1,2015-11-04T10:00:00Z,27.9396,-96.8429,2.0,213.977066,12.72220893,-99999.0,'11111222,11111222,99999999' 
TABS,ioos:station:wmo:42048:1,2015-11-04T10:30:00Z,27.9396,-96.8429,2.0,228.96223,15.24631431,-99999.0,'11111222,11111222,99999999' 
TABS,ioos:station:wmo:42048:1,2015-11-04T11:00:00Z,27.9396,-96.8429,2.0,217.2778766,15.99840617,-99999.0,'11111222,11111222,99999999' 
TABS,ioos:station:wmo:42048:1,2015-11-04T11:30:00Z,27.9396,-96.8429,2.0,219.1230452,16.02239058,-99999.0,'11111222,11111222,99999999' 
TABS,ioos:station:wmo:42048:1,2015-11-04T12:00:00Z,27.9396,-96.8429,2.0,213.0671494,13.78234015,-99999.0,'11111222,11111222,99999999' 
TABS,ioos:station:wmo:42048:1,2015-11-04T12:30:00Z,27.9396,-96.8429,2.0,220.5925473,14.72307033,-99999.0,'11111222,11111222,99999999' 
TABS,ioos:station:wmo:42048:1,2015-11-04T13:00:00Z,27.9396,-96.8429,2.0,216.4881736,15.62234617,-99999.0,'11111222,11111222,99999999' 
TABS,ioos:station:wmo:42048:1,2015-11-04T13:30:00Z,27.9396,-96.8429,2.0,212.459373,15.24112857,-99999.0,'11111222,11111222,99999999' 
TABS,ioos:station:wmo:42048:1,2015-11-04T14:00:00Z,27.9396,-96.8429,2.0,214.6573547,16.42424123,-99999.0,'11111222,11111222,99999999' 
TABS,ioos:station:wmo:42048:1,2015-11-04T14:30:00Z,27.9396,-96.8429,2.0,216.4225336,16.40449938,-99999.0,'11111222,11111222,99999999' 
TABS,ioos:station:wmo:42048:1,2015-11-04T15:00:00Z,27.9396,-96.8429,2.0,223.5285668,17.90277353,-99999.0,'11111222,11111222,99999999' 
TABS,ioos:station:wmo:42048:1,2015-11-04T15:30:00Z,27.9396,-96.8429,2.0,228.8960146,17.69027416,-99999.0,'11111222,11111222,99999999' 
TABS,ioos:station:wmo:42048:1,2015-11-04T16:00:00Z,27.9396,-96.8429,2.0,232.3251578,18.79985372,-99999.0,'11111222,11111222,99999999' 